Prague, Czech Republic

2:55 AM CET on December 15, 2017 (GMT +0100)
Ruzyne

Weather History for LKPR - November, 2013

Change the Weather History Date:

Friday, November 1, 2013

  Actual Average Record
Temperature  
Mean Temperature 41 °F -  
Max Temperature 49 °F 43 °F 59 °F (2014)
Min Temperature 33 °F 32 °F 26 °F (1997)
Degree Days  
Heating Degree Days 24    
Moisture  
Dew Point 38 °F    
Average Humidity 84    
Maximum Humidity 93    
Minimum Humidity 64    
Precipitation  
Precipitation 0.00 in 0.04 in - ()
Sea Level Pressure  
Sea Level Pressure 30.11 in    
Wind  
Wind Speed 8 mph ()    
Max Wind Speed 20 mph    
Max Gust Speed -    
Visibility 4.6 miles    
Events      
Averages and records for this station are not official NWS values.
T = Trace of Precipitation, MM = Missing Value Source: Averaged Metar Reports

Daily Weather History Graph

Daily Weather History Graph

Search for Another Location

Airport or City:

Trip Planner

Search our weather history database for the weather conditions in past years. The results will help you decide how hot, cold, wet, or windy it might be!

Date:

Astronomy

Nov. 01, 2013 Rise Set
Actual Time 6:52 AM CET 4:39 PM CET
Civil Twilight 6:18 AM CET 5:13 PM CET
Nautical Twilight 5:40 AM CET 5:51 PM CET
Astronomical Twilight 5:02 AM CET 6:29 PM CET
Moon 4:14 AM CET (11/1) 3:31 PM CET (11/1)
Length of Visible Light 10h 54m
Length of Day
9h 46m
Waning Crescent, 5% of the Moon is Illuminated
Nov 1
Waning Crescent
Nov 3
New
Nov 10
First Quarter
Nov 17
Full
Nov 25
Last Quarter

Hourly Weather History & Observations

Time (CET) Temp. Windchill Dew Point Humidity Pressure Visibility Wind Dir Wind Speed Gust Speed Precip Events Conditions
12:00 AM 37.4 °F 32.1 °F 33.8 °F 87% 30.18 in - SSW 6.9 mph - N/A   Clear
12:30 AM 37.4 °F 32.8 °F 32.0 °F 81% 30.18 in - SW 5.8 mph - N/A   Clear
1:00 AM 35 °F - 32 °F 84% 30.24 in 9 mi SW 8.9 mph - -   Clear
1:00 AM 35.6 °F 29.9 °F 32.0 °F 87% 30.18 in - SW 6.9 mph - N/A   Clear
1:30 AM 33.8 °F 29.6 °F 30.2 °F 87% 30.18 in - SW 4.6 mph - N/A   Clear
2:00 AM 35.6 °F 29.9 °F 33.8 °F 93% 30.15 in - SSW 6.9 mph - N/A   Clear
2:30 AM 37.4 °F 30.3 °F 33.8 °F 87% 30.15 in - SW 10.4 mph - N/A   Clear
3:00 AM 35.6 °F 27.5 °F 33.8 °F 93% 30.15 in - SW 11.5 mph - N/A   Clear
3:30 AM 37.4 °F 29.8 °F 33.8 °F 87% 30.15 in - SW 11.5 mph - N/A   Clear
4:00 AM 35.6 °F 27.5 °F 33.8 °F 93% 30.15 in - SW 11.5 mph - N/A   Clear
4:30 AM 37.4 °F 29.3 °F 35.6 °F 93% 30.15 in - SW 12.7 mph - N/A   Clear
5:00 AM 37.4 °F 30.8 °F 35.6 °F 93% 30.15 in 5.6 mi SW 9.2 mph - N/A   Unknown
5:30 AM 39.2 °F 29.6 °F 37.4 °F 93% 30.15 in 4.3 mi SW 19.6 mph - N/A   Scattered Clouds
5:50 AM 39.2 °F 29.8 °F 37.4 °F 93% 30.15 in 3.1 mi SW 18.4 mph - N/A   Mostly Cloudy
6:00 AM 39.2 °F 29.6 °F 37.4 °F 93% 30.15 in 3.1 mi SW 19.6 mph - N/A   Mostly Cloudy
6:30 AM 39.2 °F 29.8 °F 37.4 °F 93% 30.15 in 3.1 mi SW 18.4 mph - N/A   Mostly Cloudy
6:36 AM 39.2 °F 29.6 °F 37.4 °F 93% 30.15 in 2.8 mi SW 19.6 mph - N/A   Mostly Cloudy
7:00 AM 39.2 °F 29.8 °F 37.4 °F 93% 30.15 in - SW 18.4 mph - N/A   Mostly Cloudy
7:30 AM 39.2 °F 31.2 °F 37.4 °F 93% 30.15 in 2.5 mi SW 13.8 mph - N/A   Mostly Cloudy
8:00 AM 41.0 °F 33.5 °F 39.2 °F 93% 30.15 in 2.8 mi SW 13.8 mph - N/A   Mostly Cloudy
8:30 AM 41.0 °F 32.8 °F 39.2 °F 93% 30.15 in 2.8 mi SW 16.1 mph - N/A   Mostly Cloudy
9:00 AM 41.0 °F 33.9 °F 39.2 °F 93% 30.15 in 3.1 mi SW 12.7 mph - N/A   Mostly Cloudy
9:21 AM 42.8 °F 37.5 °F 39.2 °F 87% 30.15 in 3.7 mi SW 9.2 mph - N/A   Scattered Clouds
9:30 AM 42.8 °F 37.5 °F 39.2 °F 87% 30.15 in 4.3 mi SW 9.2 mph - N/A   Partly Cloudy
10:00 AM 44.6 °F 38.8 °F 41.0 °F 87% 30.15 in 4.3 mi SSW 11.5 mph - N/A   Partly Cloudy
10:30 AM 44.6 °F 40.2 °F 41.0 °F 87% 30.15 in 5.0 mi SW 8.1 mph - N/A   Unknown
11:00 AM 46.4 °F 41.5 °F 41.0 °F 81% 30.15 in 5.6 mi WSW 10.4 mph - N/A   Unknown
11:30 AM 46.4 °F 41.9 °F 39.2 °F 76% 30.15 in - SW 9.2 mph - N/A   Clear
12:00 PM 48.2 °F - 39.2 °F 71% 30.12 in - SW 9.2 mph - N/A   Clear
12:30 PM 50.0 °F - 39.2 °F 66% 30.12 in - WSW 8.1 mph - N/A   Clear
1:00 PM 49 °F - 41 °F 64% 30.15 in 12 mi South 6.7 mph - -   Overcast
1:00 PM 50.0 °F - 41.0 °F 71% 30.12 in - SW 9.2 mph - N/A   Clear
1:30 PM 50.0 °F - 41.0 °F 71% 30.12 in - South 5.8 mph - N/A   Clear
2:00 PM 48.2 °F - 39.2 °F 71% 30.12 in - SSW 6.9 mph - N/A   Clear
2:30 PM 48.2 °F - 39.2 °F 71% 30.09 in - SSW 5.8 mph - N/A   Clear
3:00 PM 48.2 °F - 39.2 °F 71% 30.09 in - South 4.6 mph - N/A   Clear
3:30 PM 48.2 °F - 39.2 °F 71% 30.09 in - SSW 8.1 mph - N/A   Clear
4:00 PM 46.4 °F 43.5 °F 39.2 °F 76% 30.06 in - SSW 5.8 mph - N/A   Clear
4:30 PM 46.4 °F 44.3 °F 39.2 °F 76% 30.06 in - South 4.6 mph - N/A   Clear
5:00 PM 46.4 °F 45.2 °F 39.2 °F 76% 30.06 in - South 3.5 mph - N/A   Clear
5:30 PM 46.4 °F - 39.2 °F 76% 30.06 in - Variable 2.3 mph - N/A   Clear
6:00 PM 46.4 °F - 39.2 °F 76% 30.06 in - Variable 2.3 mph - N/A   Clear
6:30 PM 44.6 °F - 39.2 °F 81% 30.04 in - Variable 2.3 mph - N/A   Clear
7:00 PM 44 °F - 40 °F 79% 30.08 in 7 mi NNE 2.2 mph - -   Mostly Cloudy
7:00 PM 44.6 °F - 39.2 °F 81% 30.04 in - Variable 2.3 mph - N/A   Clear
7:30 PM 42.8 °F 41.1 °F 37.4 °F 81% 30.04 in - SE 3.5 mph - N/A   Clear
8:00 PM 42.8 °F 40.1 °F 37.4 °F 81% 30.04 in - ESE 4.6 mph - N/A   Clear
8:30 PM 42.8 °F 40.1 °F 39.2 °F 87% 30.01 in 5.0 mi ESE 4.6 mph - N/A   Unknown
9:00 PM 41.0 °F 37.1 °F 39.2 °F 93% 30.01 in 5.0 mi ESE 5.8 mph - N/A   Unknown
9:30 PM 41.0 °F 39.0 °F 39.2 °F 93% 30.01 in 4.3 mi ESE 3.5 mph - N/A   Unknown
10:00 PM 41.0 °F 38.0 °F 39.2 °F 93% 30.01 in 4.3 mi ESE 4.6 mph - N/A   Unknown
10:30 PM 39.2 °F 35.0 °F 37.4 °F 93% 29.98 in 4.3 mi SE 5.8 mph - N/A   Unknown
11:00 PM 42.8 °F 39.3 °F 41.0 °F 93% 29.98 in 4.3 mi ESE 5.8 mph - N/A   Unknown
11:30 PM 42.8 °F 39.3 °F 41.0 °F 93% 29.98 in 4.3 mi SE 5.8 mph - N/A   Unknown